JH1CWL-13 Weather Reports


time (UTC)temp
F
wind
direction
speed
knots
gust
knots
rain 1hr
in
rain 24hr
in
rain mn
in
humidity
%
barometer
mb
20260504081525 69 233 7.0 14.8 0.00 0.16 0.14 66 996.2
20260504045526 72 248 10.4 17.4 0.00 0.16 0.14 70 995.9
20260504043525 73 250 10.4 14.8 0.00 0.16 0.14 70 995.9
20260504041525 73 273 7.0 15.6 0.00 0.16 0.14 70 996.1
20260504035524 73 248 5.2 16.5 0.00 0.16 0.14 70 996.5
20260504033525 74 232 7.8 13.9 0.00 0.16 0.14 69 996.6
20260504031526 74 255 5.2 13.0 0.00 0.16 0.14 69 996.5
20260504025525 74 262 5.2 13.0 0.00 0.16 0.14 72 997.0
20260504023525 74 239 4.3 11.3 0.00 0.16 0.14 74 997.2
20260504021526 73 228 7.8 15.6 0.00 0.16 0.14 74 997.1
20260504015525 73 236 5.2 18.2 0.00 0.16 0.14 75 997.0
20260504013524 73 286 10.4 16.5 0.00 0.16 0.14 76 997.2
20260504011525 72 258 6.1 16.5 0.00 0.16 0.14 76 997.2
20260504005524 72 258 4.3 18.2 0.00 0.16 0.14 81 997.2
20260504003525 70 253 8.7 16.5 0.00 0.16 0.14 88 997.1
20260504001525 69 260 7.8 13.0 0.00 0.16 0.14 91 997.2
20260503235525 69 242 8.7 13.9 0.00 0.16 0.14 92 997.1
20260503233525 69 259 6.1 14.8 0.00 0.16 0.14 92 997.1
20260503231526 70 251 7.0 13.0 0.00 0.16 0.14 91 997.8
20260503225525 71 220 7.8 19.1 0.00 0.16 0.14 92 997.5
20260503223525 71 241 7.0 24.3 0.00 0.16 0.14 92 997.4
20260503221525 71 280 9.6 16.5 0.00 0.16 0.14 92 997.5
20260503215525 71 262 8.7 19.1 0.00 0.16 0.14 93 997.2
20260503213526 71 287 9.6 18.2 0.00 0.16 0.14 93 997.3
20260503211524 71 240 7.8 19.1 0.01 0.16 0.14 93 997.5
20260503205525 71 218 8.7 21.7 0.03 0.16 0.14 93 997.3
20260503203525 71 236 15.6 24.3 0.03 0.16 0.14 93 997.3
20260503201524 71 301 7.8 20.0 0.02 0.15 0.12 91 997.2
20260503195524 71 240 10.4 22.6 0.00 0.12 0.10 91 997.6
20260503193525 71 247 10.4 20.0 0.00 0.12 0.10 92 997.8
20260503191525 69 246 7.8 13.0 0.00 0.12 0.10 92 997.5